• In Latvia
  • List of Countries
  • For 7 days
  • Water Temperature
  • Satellite Maps
  • Weather Map
  • Weather Widgets
  • user-avatar
    Login

    Hourly Weather Bory

    Today, 23 October, Tuesday

    Time Temperature Precipitation Wind Pressure Humidity
    00:00 +5°C° 0.1 mm 2 mps 707 mmHg 82%
    01:00 +6°C° 0 mm 2 mps 707 mmHg 85%
    02:00 +5°C° 0 mm 2 mps 707 mmHg 87%
    03:00 +5°C° 0 mm 2 mps 707 mmHg 89%
    04:00 +4°C° 0 mm 2 mps 707 mmHg 91%
    05:00 +4°C° 0 mm 2 mps 706 mmHg 92%
    06:00 +3°C° 0 mm 2 mps 706 mmHg 93%
    07:00 +3°C° 0 mm 2 mps 705 mmHg 92%
    08:00 +3°C° 0 mm 3 mps 705 mmHg 82%
    09:00 +4°C° 0 mm 4 mps 704 mmHg 72%
    10:00 +6°C° 0 mm 4 mps 704 mmHg 62%
    11:00 +6°C° 0 mm 5 mps 703 mmHg 60%
    12:00 +5°C° 0 mm 6 mps 702 mmHg 59%
    13:00 +7°C° 0 mm 6 mps 701 mmHg 57%
    14:00 +5°C° 0.4 mm 7 mps 700 mmHg 62%
    15:00 +5°C° 0.4 mm 7 mps 699 mmHg 67%
    16:00 +4°C° 0.4 mm 7 mps 698 mmHg 71%
    17:00 +4°C° 1.1 mm 7 mps 697 mmHg 75%
    18:00 +4°C° 1.1 mm 7 mps 696 mmHg 80%
    19:00 +4°C° 1.1 mm 7 mps 695 mmHg 84%
    20:00 +4°C° 1.1 mm 7 mps 695 mmHg 84%
    21:00 +5°C° 1.1 mm 8 mps 694 mmHg 84%
    22:00 +5°C° 1.1 mm 8 mps 694 mmHg 85%
    23:00 +5°C° 1.5 mm 8 mps 693 mmHg 86%

    Tomorrow, 24 October, Wednesday

    Time Temperature Precipitation Wind Pressure Humidity
    00:00 +5°C° 1.5 mm 8 mps 693 mmHg 87%
    01:00 +6°C° 1.5 mm 8 mps 692 mmHg 88%
    02:00 +5°C° 2 mm 8 mps 692 mmHg 87%
    03:00 +5°C° 2 mm 7 mps 691 mmHg 85%
    04:00 +4°C° 2 mm 7 mps 691 mmHg 84%
    05:00 +2°C° 0.6 mm 8 mps 691 mmHg 82%
    06:00 +2°C° 0.6 mm 8 mps 691 mmHg 79%
    07:00 +1°C° 0.6 mm 8 mps 691 mmHg 77%
    08:00 +1°C° 0.2 mm 8 mps 692 mmHg 73%
    09:00 +1°C° 0.2 mm 9 mps 693 mmHg 69%
    10:00 +1°C° 0.2 mm 9 mps 693 mmHg 65%
    11:00 +1°C° 0.3 mm 9 mps 694 mmHg 64%
    12:00 +1°C° 0.3 mm 9 mps 694 mmHg 62%
    13:00 +1°C° 0.3 mm 9 mps 694 mmHg 61%
    14:00 +1°C° 0.1 mm 8 mps 695 mmHg 61%
    15:00 0°C° 0.1 mm 7 mps 695 mmHg 60%
    16:00 0°C° 0.1 mm 7 mps 696 mmHg 60%
    17:00 +1°C° 0 mm 6 mps 696 mmHg 61%
    18:00 -1°C° 0 mm 6 mps 697 mmHg 62%
    19:00 0°C° 0 mm 5 mps 698 mmHg 63%
    20:00 -1°C° 0 mm 5 mps 698 mmHg 66%
    21:00 -1°C° 0 mm 4 mps 699 mmHg 69%
    22:00 -1°C° 0 mm 4 mps 699 mmHg 71%
    23:00 -2°C° 0 mm 4 mps 699 mmHg 74%

    Day after tomorrow, 25 October, Thursday

    Time Temperature Precipitation Wind Pressure Humidity
    00:00 -2°C° 0 mm 4 mps 700 mmHg 77%
    01:00 -1°C° 0 mm 3 mps 700 mmHg 80%
    02:00 -1°C° 0 mm 3 mps 700 mmHg 82%
    03:00 -1°C° 0 mm 3 mps 699 mmHg 84%
    04:00 -2°C° 0 mm 3 mps 699 mmHg 86%
    05:00 -1°C° 0.1 mm 3 mps 699 mmHg 85%
    06:00 -1°C° 0.1 mm 3 mps 699 mmHg 84%
    07:00 -1°C° 0.1 mm 3 mps 699 mmHg 83%
    08:00 0°C° 0.8 mm 3 mps 698 mmHg 84%
    09:00 +1°C° 0.8 mm 4 mps 698 mmHg 86%
    10:00 +3°C° 0.8 mm 4 mps 698 mmHg 88%
    11:00 +3°C° 0.4 mm 5 mps 697 mmHg 88%
    12:00 +5°C° 0.4 mm 5 mps 697 mmHg 88%
    13:00 +7°C° 0.4 mm 6 mps 697 mmHg 87%
    14:00 +7°C° 0.3 mm 5 mps 697 mmHg 88%
    15:00 +7°C° 0.3 mm 5 mps 697 mmHg 88%
    16:00 +7°C° 0.3 mm 5 mps 696 mmHg 88%
    17:00 +6°C° 0.2 mm 5 mps 697 mmHg 89%
    18:00 +6°C° 0.2 mm 5 mps 697 mmHg 90%
    19:00 +6°C° 0.2 mm 5 mps 697 mmHg 90%
    20:00 +6°C° 0.2 mm 4 mps 697 mmHg 90%
    21:00 +6°C° 0.2 mm 4 mps 698 mmHg 91%
    22:00 +6°C° 0.2 mm 4 mps 698 mmHg 91%
    23:00 +6°C° 0.2 mm 4 mps 698 mmHg 91%

    26 October, Friday

    Time Temperature Precipitation Wind Pressure Humidity
    00:00 +6°C° 0.2 mm 4 mps 698 mmHg 92%
    01:00 +5°C° 0.2 mm 4 mps 698 mmHg 92%
    02:00 +5°C° 0.1 mm 3 mps 698 mmHg 92%
    03:00 +5°C° 0.1 mm 3 mps 698 mmHg 93%
    04:00 +5°C° 0.1 mm 3 mps 698 mmHg 93%
    05:00 +5°C° 0.1 mm 3 mps 698 mmHg 93%
    06:00 +6°C° 0.1 mm 2 mps 698 mmHg 93%
    07:00 +6°C° 0.1 mm 2 mps 698 mmHg 92%
    08:00 +7°C° 0 mm 2 mps 698 mmHg 88%
    09:00 +8°C° 0 mm 2 mps 698 mmHg 84%
    10:00 +8°C° 0 mm 3 mps 699 mmHg 80%
    11:00 +9°C° 0 mm 3 mps 698 mmHg 78%
    12:00 +8°C° 0 mm 4 mps 698 mmHg 75%
    13:00 +10°C° 0 mm 4 mps 697 mmHg 73%
    14:00 +8°C° 0 mm 4 mps 697 mmHg 75%
    15:00 +8°C° 0 mm 4 mps 696 mmHg 78%
    16:00 +8°C° 0 mm 3 mps 696 mmHg 80%
    17:00 +7°C° 0 mm 4 mps 696 mmHg 83%
    18:00 +7°C° 0 mm 4 mps 696 mmHg 85%
    19:00 +6°C° 0 mm 4 mps 695 mmHg 87%
    20:00 +6°C° 0 mm 4 mps 695 mmHg 87%
    21:00 +6°C° 0 mm 4 mps 696 mmHg 88%
    22:00 +6°C° 0 mm 4 mps 696 mmHg 88%
    23:00 +6°C° 0 mm 4 mps 696 mmHg 88%

    27 October, Saturday

    Time Temperature Precipitation Wind Pressure Humidity
    00:00 +6°C° 0 mm 4 mps 696 mmHg 89%
    01:00 +5°C° 0 mm 4 mps 696 mmHg 89%
    02:00 +5°C° 0 mm 4 mps 696 mmHg 88%
    03:00 +5°C° 0 mm 4 mps 696 mmHg 87%
    04:00 +4°C° 0 mm 4 mps 696 mmHg 86%
    05:00 +4°C° 0 mm 3 mps 696 mmHg 86%
    06:00 +4°C° 0 mm 3 mps 696 mmHg 85%
    07:00 +3°C° 0 mm 3 mps 696 mmHg 84%
    08:00 +4°C° 0 mm 3 mps 696 mmHg 78%
    09:00 +4°C° 0 mm 3 mps 697 mmHg 72%
    10:00 +5°C° 0 mm 3 mps 697 mmHg 66%
    11:00 +5°C° 0 mm 3 mps 697 mmHg 64%
    12:00 +5°C° 0 mm 3 mps 697 mmHg 62%
    13:00 +6°C° 0 mm 2 mps 697 mmHg 60%
    14:00 +6°C° 0 mm 2 mps 697 mmHg 62%
    15:00 +6°C° 0 mm 1 mps 697 mmHg 65%
    16:00 +6°C° 0 mm 1 mps 697 mmHg 67%
    17:00 +6°C° 0.1 mm 1 mps 697 mmHg 69%
    18:00 +5°C° 0.1 mm 1 mps 697 mmHg 70%
    19:00 +4°C° 0.1 mm 0 mps 698 mmHg 72%
    20:00 +5°C° 0.1 mm 1 mps 698 mmHg 73%
    21:00 +5°C° 0.1 mm 1 mps 698 mmHg 75%
    22:00 +5°C° 0.1 mm 1 mps 698 mmHg 76%
    23:00 +4°C° 0.5 mm 1 mps 697 mmHg 78%

    28 October, Sunday

    Time Temperature Precipitation Wind Pressure Humidity
    00:00 +3°C° 0.5 mm 2 mps 697 mmHg 80%
    01:00 +3°C° 0.5 mm 2 mps 697 mmHg 82%
    02:00 +3°C° 0.6 mm 2 mps 697 mmHg 83%
    03:00 +2°C° 0.6 mm 3 mps 697 mmHg 85%
    04:00 +1°C° 0.6 mm 3 mps 697 mmHg 87%
    05:00 +1°C° 0.5 mm 3 mps 697 mmHg 88%
    06:00 +1°C° 0.5 mm 3 mps 697 mmHg 89%
    07:00 +1°C° 0.5 mm 3 mps 697 mmHg 90%
    08:00 +2°C° 0.2 mm 3 mps 696 mmHg 90%
    09:00 +2°C° 0.2 mm 3 mps 696 mmHg 90%
    10:00 +1°C° 0.2 mm 4 mps 696 mmHg 89%
    11:00 +3°C° 0.9 mm 3 mps 696 mmHg 90%
    12:00 +3°C° 0.9 mm 3 mps 695 mmHg 91%
    13:00 +4°C° 0.9 mm 3 mps 695 mmHg 92%
    14:00 +4°C° 0.8 mm 3 mps 695 mmHg 93%
    15:00 +4°C° 0.8 mm 3 mps 694 mmHg 94%
    16:00 +5°C° 0.8 mm 2 mps 694 mmHg 95%
    17:00 +5°C° 0.9 mm 2 mps 694 mmHg 95%
    18:00 +5°C° 0.9 mm 2 mps 694 mmHg 95%
    19:00 +5°C° 0.9 mm 2 mps 694 mmHg 96%
    20:00 +6°C° 1 mm 2 mps 694 mmHg 96%
    21:00 +6°C° 1 mm 2 mps 694 mmHg 96%
    22:00 +6°C° 1 mm 2 mps 693 mmHg 96%
    23:00 +6°C° 0.5 mm 2 mps 693 mmHg 96%

    29 October, Monday

    Time Temperature Precipitation Wind Pressure Humidity
    00:00 +6°C° 0.5 mm 2 mps 693 mmHg 96%
    01:00 +7°C° 0.5 mm 2 mps 692 mmHg 96%
    02:00 +7°C° 0.2 mm 2 mps 692 mmHg 96%
    03:00 +7°C° 0.2 mm 2 mps 692 mmHg 95%
    04:00 +7°C° 0.2 mm 2 mps 691 mmHg 95%
    05:00 +7°C° 0.4 mm 2 mps 691 mmHg 95%
    06:00 +7°C° 0.4 mm 2 mps 691 mmHg 94%
    07:00 +7°C° 0.4 mm 2 mps 691 mmHg 94%
    08:00 +8°C° 0.6 mm 2 mps 691 mmHg 92%
    09:00 +9°C° 0.6 mm 2 mps 691 mmHg 90%
    10:00 +10°C° 0.6 mm 2 mps 691 mmHg 87%
    11:00 +12°C° 0.1 mm 2 mps 691 mmHg 86%
    12:00 +12°C° 0.1 mm 2 mps 691 mmHg 85%
    13:00 +12°C° 0.1 mm 2 mps 691 mmHg 84%
    14:00 +12°C° 0 mm 2 mps 691 mmHg 87%
    15:00 +12°C° 0 mm 2 mps 691 mmHg 89%
    16:00 +10°C° 0 mm 2 mps 691 mmHg 91%
    17:00 +10°C° 0 mm 2 mps 691 mmHg 92%
    18:00 +9°C° 0 mm 2 mps 691 mmHg 92%
    19:00 +9°C° 0 mm 2 mps 691 mmHg 93%
    20:00 +9°C° 0 mm 2 mps 691 mmHg 93%
    21:00 +9°C° 0 mm 2 mps 691 mmHg 93%
    22:00 +9°C° 0 mm 2 mps 691 mmHg 93%
    23:00 +9°C° 0 mm 2 mps 691 mmHg 93%
    Show more